Find Starlink 1912

NORAD ID: 47178 Int'l Des: 2020-088 Owner: SPXS Country: US Constellation: starlink operational
LEOCIRCULAR

Current View

Loading 3D Globe...

About Starlink 1912

Starlink 1912 (NORAD 47178) is a starlink constellation satellite (v1.0) launched Nov 25, 2020 by SPXS of US. It operates in LEO, CIRCULAR orbit with a mass of 260.00 kg.

About Starlink 1912

Description loading...

Upcoming Passes

Passes for default location (London). Set your location on the main map for personalized predictions.

Altitude History

Loading altitude history...

Two-Line Element Set

1 47178U 20088BJ 26170.93803184 .00105587 00000-0 61553-3 0 9996
2 47178 53.0455 138.7142 0001290 118.6269 241.4881 15.77645270308140
Epoch: Jun 19, 2026 • Age: 10 hours

Current Status

Altitude 355.8 km
Velocity 7.69 km/s
Sub-Earth Point -52.40°S, 19.61°E
Launch Date Nov 25, 2020
Age 5.5 years
Type internet

Technical Details

Classification Payload
Mass 260.00 kg
Dry Mass 248.00 kg
Total Mass 260.00 kg
Length 0.20 m
Diameter 2.80 m
Span 9.00 m
Shape Box + pan
Manufacturer SPXS
Bus Type Starlink
Phase Status In Orbit
Owner/State SPXS/US

Most Searched